Probability
0 0 0 0 0 0 1 2 2 3 3 2 1 0 0 0 0 0 0 0 0 0 0 1 3 4 3 2 1 1 2 3 3 3 1 1 2 3 4 4 3 3 3
0 0 0 0 0 0 0 1 1 2 2 2 1 0 0 0 0 0 0 0 0 0 0 1 2 2 2 2 2 2 4 4 4 3 2 1 1 2 3 3 3 3 3
0 0 0 0 0 0 0 0 0 1 1 1 0 0 0 0 0 0 0 0 0 0 0 1 1 1 2 3 3 3 4 5 4 4 3 2 1 1 2 3 3 3 3
0 0 0 0 0 0 0 0 0 0 0 0 0 0 0 0 0 0 0 0 0 0 0 0 0 2 3 3 3 3 3 4 4 3 3 3 2 1 2 2 2 2 2
0 0 0 0 0 0 0 0 0 0 0 0 0 0 0 0 0 0 0 0 0 0 0 0 0 1 2 1 1 2 2 3 3 3 2 2 2 1 1 1 1 1 1
0 0 0 0 0 0 0 0 0 0 0 0 0 0 0 0 0 0 0 0 0 0 0 0 0 0 0 0 0 1 1 2 2 2 1 1 2 3 2 1 0 0 0
0 0 0 0 0 0 0 0 0 0 0 0 0 0 0 0 0 0 0 0 0 0 0 0 0 0 0 0 0 0 0 1 1 1 1 1 2 3 2 1 0 0 0
0 0 0 0 0 0 0 0 0 0 0 0 0 0 0 0 0 0 0 0 0 0 0 0 0 0 0 0 0 0 0 1 1 0 0 1 1 1 1 0 0 0 0
0 0 0 0 0 0 0 0 0 0 0 0 0 0 0 0 0 0 0 0 0 0 0 0 0 0 0 0 0 0 0 0 0 0 0 0 0 0 0 0 0 0 0
0 0 0 0 0 0 0 0 0 0 0 0 0 0 0 0 0 0 0 0 0 0 0 0 0 0 0 0 0 0 0 0 0 0 0 0 0 1 1 1 1 0 0
0 0 0 0 0 0 0 0 0 0 0 0 0 0 0 0 0 0 0 0 0 0 0 0 0 0 0 0 0 0 0 0 0 0 0 0 0 0 0 1 1 0 0
0 0 0 0 0 0 0 0 0 0 0 0 0 0 0 0 0 0 0 0 0 0 0 0 0 0 0 0 0 0 0 0 0 0 0 0 0 0 0 0 0 0 0
0 0 0 0 0 0 0 0 0 0 0 0 0 0 0 0 0 0 0 0 0 0 0 0 0 0 0 0 0 0 0 0 0 0 0 0 0 0 0 0 0 0 0
0 0 0 0 0 0 0 0 0 0 0 0 0 0 0 0 0 0 0 0 0 0 0 0 0 0 0 0 0 0 0 0 0 0 0 0 0 0 0 0 0 0 0
0 0 0 0 0 0 0 0 0 0 0 0 0 0 0 0 0 0 0 0 0 0 0 0 0 0 0 0 0 0 0 0 0 0 0 0 0 0 0 0 0 0 0
0 0 0 0 0 0 0 0 0 0 0 0 0 0 0 0 0 0 0 0 0 0 0 0 0 0 0 0 0 0 0 0 0 0 0 0 0 0 0 0 0 0 0
0 0 0 0 0 0 0 0 0 0 0 0 0 0 0 0 0 0 0 0 0 0 0 0 0 0 0 0 0 0 0 0 0 0 0 0 0 0 0 0 0 0 0
0 0 0 0 0 0 0 0 0 0 0 0 0 0 0 0 0 0 0 0 0 0 0 0 0 0 0 0 0 0 0 0 0 0 0 0 0 0 0 0 0 0 0
0 0 0 0 0 0 0 0 0 0 0 0 0 0 0 0 0 0 0 0 0 0 0 0 0 0 0 0 0 0 0 0 0 0 0 0 0 0 0 0 0 0 0
0 0 0 0 0 0 0 0 0 0 0 0 0 0 0 0 0 0 0 0 0 0 0 0 0 0 0 0 0 0 0 0 0 0 0 0 0 0 0 0 0 0 0
0 0 0 0 0 0 0 0 0 0 0 0 0 0 0 0 0 0 0 0 0 0 0 0 0 0 0 0 0 0 0 0 0 0 0 0 0 0 0 0 0 0 0
0 0 0 0 0 0 0 0 0 0 0 0 0 0 0 0 0 0 0 0 0 0 0 0 0 0 0 0 0 0 0 0 0 0 0 0 0 0 0 0 0 0 0
0 0 0 0 0 0 0 0 0 0 0 0 0 0 0 0 0 0 0 0 0 0 0 0 0 0 0 0 0 0 0 0 0 0 0 0 0 0 0 0 0 0 0
0 0 0 0 0 0 0 0 0 0 0 0 0 0 0 0 0 0 0 0 0 0 0 0 0 0 0 0 0 0 0 0 0 0 0 0 0 0 0 0 0 0 0
0 0 0 0 0 0 0 0 0 0 0 0 0 0 0 0 0 0 0 0 0 0 0 0 0 0 0 0 0 0 0 0 0 0 0 0 0 0 0 0 0 0 0
0 0 0 0 0 0 0 0 0 0 0 0 0 0 0 0 0 0 0 0 0 0 0 0 0 0 0 0 0 0 0 0 0 0 0 0 0 0 0 0 0 0 0
Wind_Speed
2 2 2 2 2 2 2 3 3 4 4 4 4 5 4 4 4 3 3 9 9 8 8 8 8 8 8 8 8 8 7 7 6 6 6 5 5 5 4 4 4 4 4
2 2 2 2 2 2 2 2 3 3 3 3 4 4 4 4 4 4 3 5 9 9 8 8 8 8 8 7 7 7 7 7 6 5 5 5 4 4 4 4 3 3 3
2 2 2 2 2 2 3 3 3 3 3 3 4 4 3 4 4 4 4 3 3 8 9 9 9 9 9 8 8 8 8 7 6 6 4 5 4 4 4 3 3 3 2
2 2 2 2 1 2 2 2 2 2 3 3 3 2 2 3 4 4 3 3 2 3 6 9 9 9 9 9 9 9 8 7 6 6 4 4 4 3 3 3 3 3 3
2 2 2 1 1 2 1 1 2 2 2 3 2 2 2 2 2 3 3 3 3 3 2 6 9 9 9 9 9 9 9 8 7 6 5 4 4 3 3 2 2 3 3
2 2 2 2 2 2 2 2 2 2 2 2 2 2 1 1 1 1 2 2 2 3 3 3 3 5 9 10 10 10 10 9 8 7 6 5 4 4 4 3 3 3 3
2 2 2 2 2 2 1 2 2 2 2 2 2 2 2 1 1 1 2 2 2 2 3 3 2 2 3 7 9 10 10 10 10 8 7 7 6 5 4 4 4 3 4
2 2 2 2 1 1 2 2 1 1 1 2 1 1 1 2 2 1 1 1 2 2 2 3 2 2 2 2 5 9 10 10 10 10 9 8 7 7 6 6 6 5 4
2 2 2 2 1 1 1 1 1 1 1 1 1 1 1 1 2 1 1 1 1 1 1 1 2 3 3 2 2 6 9 9 10 10 10 9 8 8 7 7 8 7 6
2 2 2 2 1 1 1 1 1 0 1 0 1 1 0 1 1 1 2 1 1 1 1 1 2 2 2 1 3 7 9 9 9 10 10 10 9 9 8 8 8 8 7
2 2 2 2 2 1 1 1 1 1 0 1 0 0 1 1 0 1 2 2 1 1 1 1 1 1 1 1 1 4 7 8 9 10 10 10 10 10 10 9 9 8 9
2 2 2 2 2 1 1 1 1 1 0 0 0 0 0 0 1 0 1 2 2 2 1 1 1 1 1 1 3 7 8 8 9 10 11 11 11 11 12 11 9 9 10
2 2 2 2 2 1 1 1 1 1 0 1 0 0 0 0 0 1 1 2 2 2 2 1 1 1 1 1 2 7 7 9 10 10 11 11 11 11 12 12 11 11 11
2 2 2 2 2 1 1 1 1 0 0 0 0 0 0 0 0 0 1 1 2 2 2 2 1 0 1 1 4 8 4 9 10 11 11 11 11 11 11 12 12 12 11
3 3 2 2 1 1 1 1 1 1 0 0 0 0 0 1 0 0 1 1 1 2 3 2 1 1 1 2 5 3 3 8 11 11 11 11 11 11 11 11 12 12 11
3 3 2 2 2 1 1 1 1 1 1 0 0 0 0 1 1 0 1 1 1 2 3 2 2 2 3 4 7 4 4 11 11 12 11 11 11 11 11 11 11 11 11
3 3 3 2 2 1 1 1 1 1 1 1 1 1 1 1 1 1 1 1 1 1 3 4 3 3 3 4 4 4 4 4 5 11 12 11 11 11 11 11 11 11 11
3 3 3 2 2 1 1 1 2 2 2 2 1 1 2 1 1 1 1 2 2 2 3 5 4 3 4 4 4 4 5 5 4 9 12 12 11 11 12 12 12 11 11
2 2 2 2 2 1 1 1 2 2 2 2 2 2 2 2 2 2 2 2 2 2 2 3 4 3 3 3 3 4 5 4 5 7 10 11 11 12 12 12 12 12 11
2 2 2 2 2 2 1 1 1 1 2 2 2 2 2 2 3 3 3 3 3 3 3 3 4 4 4 3 3 3 4 3 4 5 7 8 11 12 12 12 12 12 12
2 2 2 1 1 2 2 2 2 2 2 2 2 2 2 3 4 4 3 3 3 3 3 3 4 4 4 3 3 3 4 4 4 4 4 4 5 4 5 9 11 12 12
2 2 2 2 2 2 3 4 2 2 2 2 2 2 3 3 5 6 7 7 6 5 4 4 4 5 5 4 3 3 4 5 5 2 3 5 4 4 4 4 10 13 13
2 2 2 1 2 2 4 4 4 2 2 2 3 3 3 3 4 3 5 7 7 9 9 6 5 5 6 4 4 4 4 5 6 4 4 6 4 5 4 6 12 13 13
2 2 2 2 1 2 4 4 3 1 2 3 3 3 3 3 4 4 3 4 4 5 7 5 5 6 5 4 4 5 6 6 6 5 4 6 4 5 6 4 10 12 13
1 1 1 2 2 3 4 4 3 1 2 2 2 2 3 3 6 7 4 4 5 5 8 10 10 9 10 10 8 4 3 4 6 4 2 3 4 6 5 5 6 10 12
1 1 1 1 2 2 4 4 3 1 2 2 2 3 4 5 7 7 4 3 5 5 4 5 6 7 6 7 9 4 3 4 5 4 2 3 4 5 5 3 3 4 6
Wind_Direction
81 74 60 47 39 34 29 24 26 28 30 25 29 38 37 44 54 62 48 50 49 49 44 45 45 47 47 46 45 44 39 37 39 40 40 44 51 58 62 61 60 57 55
81 82 69 53 42 33 30 33 33 29 29 31 34 35 39 37 46 57 61 51 46 47 47 45 43 41 41 39 38 36 33 34 33 35 36 34 40 45 52 53 51 49 47
74 84 82 63 48 40 38 38 34 33 34 37 38 31 35 35 42 50 51 58 48 45 45 45 45 44 42 39 36 33 29 32 32 29 27 22 21 29 37 35 33 28 25
69 83 85 73 59 56 51 54 39 42 38 33 32 24 31 30 39 45 49 48 50 51 41 43 43 41 38 35 32 28 26 28 30 24 19 11 5 2 11 13 12 8 11
70 88 90 81 64 61 52 51 45 49 48 34 27 23 33 36 31 49 50 51 52 59 52 44 42 38 36 33 29 25 22 21 20 14 8 357 355 344 330 339 345 354 355
77 83 95 86 69 67 55 53 57 53 54 38 29 28 18 35 30 61 59 55 49 50 47 47 42 35 35 32 28 24 19 17 11 4 357 348 336 331 320 307 310 322 328
95 101 100 91 78 81 82 74 67 76 48 33 39 13 1 39 52 50 51 55 49 49 45 39 41 39 28 28 24 19 15 13 11 3 354 347 340 330 328 319 310 311 311
117 119 112 111 99 94 84 78 73 76 55 29 49 54 10 359 3 17 28 50 44 42 44 32 40 43 37 23 19 16 11 5 3 0 354 343 336 328 320 321 313 299 300
129 125 121 115 115 105 110 97 95 85 96 0 32 95 124 199 330 319 343 35 34 28 29 26 37 43 35 31 11 5 4 359 356 351 349 343 335 327 317 312 310 305 291
129 116 123 117 110 101 120 135 84 100 110 87 2 14 53 152 156 315 317 333 11 1 354 9 24 32 31 19 5 0 359 355 349 343 342 340 333 323 319 316 309 306 303
125 113 114 121 116 102 106 90 63 56 90 145 175 323 355 358 3 182 272 297 323 318 334 335 342 358 8 6 354 345 349 348 344 337 334 334 332 329 319 312 311 309 306
138 134 119 113 114 112 112 109 74 69 55 90 48 27 94 48 313 303 275 293 293 285 286 282 282 290 329 352 342 340 340 340 336 333 329 328 327 328 328 314 307 306 304
161 169 142 135 128 122 117 109 105 77 57 105 98 328 21 319 299 300 272 290 291 287 270 270 258 236 325 349 331 332 330 330 326 324 324 324 324 324 325 324 316 308 303
165 161 144 136 130 128 125 113 112 114 67 86 113 276 354 313 339 306 238 266 296 287 268 255 278 254 342 323 316 325 318 321 318 317 318 318 319 319 319 320 316 312 304
150 145 144 137 132 128 130 130 132 140 101 9 153 105 304 302 311 296 276 228 230 272 279 256 285 300 319 307 311 309 300 314 316 315 313 314 316 314 314 314 315 314 313
141 144 144 145 145 144 148 139 147 147 141 230 240 178 277 308 306 266 258 272 255 245 268 277 288 290 299 305 313 311 301 314 314 314 310 310 312 310 310 310 311 311 307
143 145 147 148 154 160 158 153 171 166 182 222 255 229 243 246 271 286 269 270 277 261 268 284 287 288 284 292 300 296 294 292 295 306 308 307 308 308 308 306 305 305 304
142 144 145 146 156 160 174 183 193 195 197 212 228 227 250 249 251 267 272 261 258 258 257 279 285 289 278 277 283 290 298 298 294 302 305 306 305 306 306 304 304 302 302
140 145 146 154 165 177 195 210 207 200 206 214 217 222 238 233 250 256 262 265 264 269 266 272 281 280 276 275 284 288 287 288 297 299 301 303 304 304 303 304 304 301 299
147 153 155 162 173 181 193 201 219 212 212 221 225 230 234 232 235 242 251 263 268 266 265 272 277 281 279 269 272 284 292 287 293 299 301 302 299 300 300 302 301 300 297
152 154 154 168 175 189 195 194 213 215 212 224 241 245 242 252 256 255 257 256 266 264 265 270 277 285 283 282 277 282 290 298 289 283 293 295 296 287 290 293 293 292 292
151 156 173 183 192 216 214 219 223 216 216 220 236 249 255 261 268 270 275 275 269 269 266 263 271 275 282 277 279 287 291 299 296 289 298 295 290 286 283 276 290 292 291
159 166 180 192 213 231 229 227 233 232 220 226 231 236 256 265 276 268 271 278 280 280 277 272 268 271 282 283 284 287 283 282 283 285 292 288 285 288 286 293 297 296 297
171 187 196 211 225 246 241 237 241 242 231 231 229 230 237 249 262 269 261 268 270 275 279 279 269 268 277 282 266 270 274 283 282 278 272 281 289 290 293 287 291 294 299
183 212 206 209 222 246 249 244 245 231 225 237 242 242 243 241 262 272 270 265 271 276 285 283 280 283 288 294 295 290 286 288 291 286 265 274 291 300 291 279 283 292 300
198 230 239 226 224 235 244 246 256 228 223 227 242 249 256 261 267 270 260 252 266 275 285 291 290 292 290 293 296 288 278 278 288 291 280 288 297 313 301 278 275 287 292